Le nostre stazioni meteo in Italia

Pubblicità
Il mio iltempo24.it
Sciacca, Italia (16436): Temperatura & dewpoint: 22.05.2018 10:00:00 - 28.05.2018 10:00:00 (CEST)Sciacca, Italia (16436): velocità del vento: 22.05.2018 10:00:00 - 28.05.2018 10:00:00 (CEST)Sciacca, Italia (16436): direzione del vento: 22.05.2018 10:00:00 - 28.05.2018 10:00:00 (CEST)Sciacca, Italia (16436): reduced air pressure: 22.05.2018 10:00:00 - 28.05.2018 10:00:00 (CEST)Sciacca, Italia (16436): precipitazioni: 22.05.2018 10:00:00 - 28.05.2018 10:00:00 (CEST)
Data & Tempo tt [°C] td [°C] ff [km/h] ff [kn] dd ppp [hPa] rr [mm]
28.05.2018 10:00:00 - - - - - - -
28.05.2018 09:00:00 23,3 14,2 - - - 1028,1 -
28.05.2018 08:00:00 21,9 17,8 - - - 1027,8 -
28.05.2018 07:00:00 19,2 15,0 - - - 1028,5 -
28.05.2018 06:00:00 18,1 13,9 - - - 1028,2 -
28.05.2018 05:00:00 17,4 14,0 - - - 1028,2 -
28.05.2018 04:00:00 17,7 14,1 - - - 1029,1 -
28.05.2018 03:00:00 18,4 13,8 - - - 1029,0 -
28.05.2018 02:00:00 18,7 13,9 5 3 NNE 1028,6 0,0
28.05.2018 01:00:00 19,1 14,9 5 3 NNE 1028,5 -
28.05.2018 00:00:00 18,4 14,8 5 3 NNE 1028,4 -
27.05.2018 23:00:00 19,2 14,6 4 2 NE 1028,1 -
27.05.2018 22:00:00 19,4 14,6 5 3 NE 1027,4 -
27.05.2018 21:00:00 19,6 11,3 0 0 N 1027,4 -
27.05.2018 20:00:00 22,7 15,0 2 1 SSE 1026,9 0,0
27.05.2018 19:00:00 23,9 13,7 4 2 S 1026,7 -
27.05.2018 18:00:00 24,2 13,6 4 2 S 1026,4 -
27.05.2018 17:00:00 24,6 14,3 5 3 S 1026,9 -
27.05.2018 16:00:00 24,8 12,0 5 3 S 1027,1 -
27.05.2018 15:00:00 26,0 14,4 5 3 SE 1027,2 -
27.05.2018 14:00:00 25,1 12,9 4 2 SSO 1028,3 0,0
27.05.2018 13:00:00 25,0 12,8 8 4 SO 1029,0 -
27.05.2018 12:00:00 24,1 12,0 9 5 SO 1029,6 -
27.05.2018 11:00:00 23,4 11,4 9 5 SO 1029,7 -
27.05.2018 10:00:00 23,9 13,4 4 2 SSO 1029,1 -
27.05.2018 09:00:00 23,5 16,5 4 2 S 1029,0 -
27.05.2018 08:00:00 21,8 16,2 2 1 SE 1028,7 0,0
27.05.2018 07:00:00 18,2 14,0 5 3 NNE 1028,5 -
27.05.2018 06:00:00 17,5 13,3 4 2 NE 1028,6 -
27.05.2018 05:00:00 17,9 14,7 8 4 NNE 1028,6 -
27.05.2018 04:00:00 16,9 13,3 2 1 NNE 1029,3 -
27.05.2018 03:00:00 16,9 13,0 4 2 NNE 1029,4 -
27.05.2018 02:00:00 17,3 12,6 2 1 N 1029,3 0,0
27.05.2018 01:00:00 17,8 12,6 5 3 NNE 1029,4 -
27.05.2018 00:00:00 18,6 15,6 4 2 NNE 1029,0 -
26.05.2018 23:00:00 17,6 15,9 5 3 NE 1029,2 -
26.05.2018 22:00:00 18,3 16,2 2 1 OSO 1028,8 -
26.05.2018 21:00:00 19,8 17,3 2 1 SO 1028,0 -
26.05.2018 20:00:00 21,5 17,2 2 1 S 1027,2 0,0
26.05.2018 19:00:00 23,1 14,0 4 2 SSO 1026,9 -
26.05.2018 18:00:00 23,3 12,3 11 6 OSO 1026,8 -
26.05.2018 17:00:00 23,8 12,7 9 5 SO 1026,7 -
26.05.2018 16:00:00 23,6 14,2 11 6 OSO 1027,2 -
26.05.2018 15:00:00 23,5 14,4 8 4 SO 1027,3 -
26.05.2018 14:00:00 23,7 17,1 9 5 SO 1027,2 0,0
26.05.2018 13:00:00 24,2 13,9 8 4 SO 1027,3 -
26.05.2018 12:00:00 23,7 14,6 8 4 SO 1027,4 -
26.05.2018 11:00:00 23,9 15,8 8 4 SO 1027,2 -
26.05.2018 10:00:00 22,6 16,5 5 3 SO 1027,3 -
26.05.2018 09:00:00 21,1 18,0 - - - 1027,3 -
26.05.2018 08:00:00 19,8 18,4 4 2 NE 1027,4 -
26.05.2018 07:00:00 15,9 15,2 4 2 NE 1027,5 -
26.05.2018 06:00:00 14,5 13,7 2 1 N 1027,4 -
26.05.2018 05:00:00 14,8 14,1 2 1 NNE 1027,2 -
26.05.2018 04:00:00 15,1 14,1 2 1 N 1027,4 -
26.05.2018 03:00:00 15,6 14,6 0 0 N 1027,3 -
26.05.2018 02:00:00 15,6 14,6 2 1 O 1027,3 0,0
26.05.2018 01:00:00 16,0 14,8 0 0 N 1027,0 -
26.05.2018 00:00:00 16,1 15,1 4 2 NNE 1026,7 -
25.05.2018 23:00:00 16,6 15,6 2 1 ENE 1026,5 -
25.05.2018 22:00:00 17,4 16,2 0 0 N 1025,9 -
25.05.2018 21:00:00 18,2 16,6 0 0 N 1025,1 -
25.05.2018 20:00:00 19,8 18,1 2 1 SE 1024,4 0,0
25.05.2018 19:00:00 21,1 19,0 5 3 ONO 1024,3 -
25.05.2018 18:00:00 21,8 18,5 5 3 SSO 1024,1 -
25.05.2018 17:00:00 22,2 17,1 13 7 SO 1024,4 -
25.05.2018 16:00:00 23,0 13,9 9 5 SO 1024,3 -
25.05.2018 15:00:00 22,2 16,2 16 9 OSO 1024,6 -
25.05.2018 14:00:00 22,1 16,7 16 9 SO 1025,0 0,0
25.05.2018 13:00:00 22,4 16,4 13 7 SO 1025,1 -
25.05.2018 12:00:00 21,7 17,0 13 7 OSO 1025,4 -
25.05.2018 11:00:00 20,5 16,9 13 7 SO 1025,7 -
25.05.2018 10:00:00 20,7 17,1 - - - 1026,0 -
25.05.2018 09:00:00 19,0 17,3 - - - 1026,5 -
25.05.2018 08:00:00 17,2 16,3 - - - 1026,6 0,0
25.05.2018 07:00:00 14,7 14,2 - - - 1026,7 -
25.05.2018 06:00:00 13,3 12,5 - - - 1026,4 -
25.05.2018 05:00:00 13,6 12,5 4 2 NE 1026,5 -
25.05.2018 04:00:00 14,0 12,4 5 3 NE 1026,5 -
25.05.2018 03:00:00 14,6 12,4 2 1 E 1026,6 -
25.05.2018 02:00:00 15,6 12,3 2 1 O 1026,6 0,0
25.05.2018 01:00:00 17,0 12,7 - - - 1026,6 -
25.05.2018 00:00:00 18,9 9,9 0 0 N 1026,3 -
24.05.2018 23:00:00 20,3 10,6 8 4 NE 1026,0 -
24.05.2018 22:00:00 21,4 14,5 - - - 1025,3 -
24.05.2018 21:00:00 21,6 12,9 11 6 N 1024,8 -
24.05.2018 20:00:00 23,3 15,8 11 6 N 1024,5 0,0
24.05.2018 19:00:00 24,8 15,1 16 9 NO 1024,3 -
24.05.2018 18:00:00 26,0 13,7 16 9 N 1024,2 -
24.05.2018 17:00:00 26,2 14,6 15 8 E 1024,7 -
24.05.2018 16:00:00 25,9 17,5 18 10 O 1025,0 -
24.05.2018 15:00:00 25,5 17,1 22 12 O 1025,8 -
24.05.2018 14:00:00 25,5 15,7 22 12 OSO 1025,9 0,0
24.05.2018 13:00:00 24,9 14,9 24 13 OSO 1026,3 -
24.05.2018 12:00:00 24,6 15,2 8 4 SE 1027,1 -
24.05.2018 11:00:00 21,7 15,9 8 4 S 1027,8 -
24.05.2018 10:00:00 20,0 16,0 8 4 S 1028,3 -
24.05.2018 09:00:00 18,7 16,4 5 3 S 1029,0 -
24.05.2018 08:00:00 16,9 15,9 2 1 S 1029,1 0,0
24.05.2018 07:00:00 13,6 12,8 0 0 N 1029,2 -
24.05.2018 06:00:00 12,9 11,8 5 3 NE 1028,8 -
24.05.2018 05:00:00 13,4 12,3 5 3 NE 1028,5 -
24.05.2018 04:00:00 14,1 12,5 4 2 O 1029,0 -
24.05.2018 03:00:00 15,8 13,0 5 3 OSO 1028,8 -
24.05.2018 02:00:00 16,4 13,4 8 4 N 1028,9 0,0
24.05.2018 01:00:00 17,0 14,8 8 4 N 1029,0 -
24.05.2018 00:00:00 17,2 15,1 15 8 N 1028,9 -
23.05.2018 23:00:00 17,8 15,2 11 6 NNO 1028,5 -
23.05.2018 22:00:00 18,2 15,6 16 9 NO 1027,8 -
23.05.2018 21:00:00 19,0 15,8 9 5 NNO 1026,9 -
23.05.2018 20:00:00 20,4 15,3 13 7 O 1027,0 0,0
23.05.2018 19:00:00 20,3 16,3 18 10 O 1026,3 -
23.05.2018 18:00:00 21,4 16,7 24 13 O 1026,2 -
23.05.2018 17:00:00 22,0 17,3 22 12 O 1026,6 -
23.05.2018 16:00:00 21,9 17,0 26 14 O 1026,7 -
23.05.2018 15:00:00 21,9 17,6 28 15 O 1026,9 -
23.05.2018 14:00:00 21,9 17,6 22 12 OSO 1026,9 0,0
23.05.2018 13:00:00 22,2 17,7 22 12 OSO 1026,7 -
23.05.2018 12:00:00 21,4 17,5 24 13 O 1027,0 -
23.05.2018 11:00:00 19,9 16,7 16 9 O 1027,0 -
23.05.2018 10:00:00 19,6 16,4 15 8 OSO 1027,0 -
23.05.2018 09:00:00 18,6 16,9 - - - 1027,1 -
23.05.2018 08:00:00 17,3 15,8 - - - 1026,8 0,0
23.05.2018 07:00:00 16,4 14,9 - - - 1026,5 -
23.05.2018 06:00:00 15,9 14,5 - - - 1026,3 -
23.05.2018 05:00:00 16,6 15,9 - - - 1025,9 -
23.05.2018 04:00:00 17,1 16,2 - - - 1025,6 -
23.05.2018 03:00:00 17,2 16,2 - - - 1025,2 -
23.05.2018 02:00:00 18,1 16,5 - - - 1025,1 0,0
23.05.2018 01:00:00 18,2 16,8 - - - 1025,4 -
23.05.2018 00:00:00 19,0 16,5 - - - 1025,0 -
22.05.2018 23:00:00 19,4 17,1 - - - 1025,1 -
22.05.2018 22:00:00 19,5 17,0 - - - 1025,0 -
22.05.2018 21:00:00 20,3 16,3 8 4 N 1022,9 -
22.05.2018 20:00:00 19,7 18,1 11 6 N 1023,4 0,0
22.05.2018 19:00:00 21,3 17,8 8 4 O 1024,1 -
22.05.2018 18:00:00 21,4 17,3 9 5 OSO 1023,5 -
22.05.2018 17:00:00 21,6 17,3 8 4 O 1023,4 -
22.05.2018 16:00:00 21,8 16,9 11 6 O 1023,6 -
22.05.2018 15:00:00 22,5 16,2 5 3 NE 1023,8 -
22.05.2018 14:00:00 23,2 14,1 5 3 SO 1023,5 0,0
22.05.2018 13:00:00 23,2 13,9 15 8 OSO 1023,6 -
22.05.2018 12:00:00 23,7 14,3 9 5 SO 1023,4 -
22.05.2018 11:00:00 23,9 14,8 8 4 SSE 1023,4 -
22.05.2018 10:00:00 22,7 13,7 5 3 S 1023,8 -

tt = Temperatura
td = dewpoint
ff = velocità del vento
dd = direzione del vento
ppp = reduced air pressure
rr = precipitazioni

Stazioni seguenti

WeatherPro
AMSI
MeteoEarth